Gulf Shores, AL

5:26 PM CDT on September 21, 2017 (GMT -0500)
Edwards

Weather History for KJKA - December, 2012

Change the Weather History Date:

Tuesday, December 18, 2012

  Actual Average (KNPA) Record (KNPA)
Temperature  
Mean Temperature 53 °F -  
Max Temperature 64 °F 60 °F 75 °F (2016)
Min Temperature 42 °F 41 °F 30 °F (2000)
Degree Days  
Heating Degree Days 12    
Growing Degree Days 3 (Base 50)    
Moisture  
Dew Point 46 °F    
Average Humidity 75    
Maximum Humidity 94    
Minimum Humidity 40    
Precipitation  
Precipitation 0.00 in - - ()
Sea Level Pressure  
Sea Level Pressure 30.00 in    
Wind  
Wind Speed 4 mph (WSW)    
Max Wind Speed 8 mph    
Max Gust Speed -    
Visibility 9 miles    
Events      
Averages and records for this station are not official NWS values.
T = Trace of Precipitation, MM = Missing Value Source: NWS Daily Summary

Daily Weather History Graph

Daily Weather History Graph

Search for Another Location

Airport or City:

Trip Planner

Search our weather history database for the weather conditions in past years. The results will help you decide how hot, cold, wet, or windy it might be!

Date:

Astronomy

Dec. 18, 2012 Rise Set
Actual Time 6:41 AM CST 4:53 PM CST
Civil Twilight 6:15 AM CST 5:19 PM CST
Nautical Twilight 5:45 AM CST 5:49 PM CST
Astronomical Twilight 5:15 AM CST 6:19 PM CST
Moon 10:43 AM CST (12/18) 10:54 PM CST (12/18)
Length of Visible Light 11h 04m
Length of Day
10h 11m
Waxing Crescent, 35% of the Moon is Illuminated
Dec 18
Waxing Crescent
Dec 19
First Quarter
Dec 28
Full
Jan 4
Last Quarter
Jan 11
New

Hourly Weather History & Observations

Time (CST) Temp. Dew Point Humidity Pressure Visibility Wind Dir Wind Speed Gust Speed Precip Events Conditions
12:15 AM 60.8 °F 59.0 °F 94% 29.88 in 5.0 mi West 6.9 mph - N/A   Mostly Cloudy
12:35 AM 60.8 °F 59.0 °F 94% 29.89 in 7.0 mi West 8.1 mph - N/A   Mostly Cloudy
12:55 AM 60.8 °F 57.2 °F 88% 29.90 in 7.0 mi West 8.1 mph - N/A   Scattered Clouds
1:15 AM 60.8 °F 57.2 °F 88% 29.91 in 10.0 mi West 8.1 mph - N/A   Clear
1:35 AM 59.0 °F 55.4 °F 88% 29.92 in 7.0 mi West 8.1 mph - N/A   Clear
1:55 AM 59.0 °F 55.4 °F 88% 29.91 in 7.0 mi West 8.1 mph - N/A   Clear
2:15 AM 59.0 °F 53.6 °F 82% 29.92 in 10.0 mi WNW 5.8 mph - N/A   Clear
2:35 AM 57.2 °F 53.6 °F 88% 29.91 in 10.0 mi West 4.6 mph - N/A   Clear
2:55 AM 55.4 °F 51.8 °F 88% 29.92 in 10.0 mi West 3.5 mph - N/A   Clear
3:15 AM 55.4 °F 51.8 °F 88% 29.93 in 10.0 mi West 4.6 mph - N/A   Clear
3:35 AM 53.6 °F 50.0 °F 88% 29.93 in 10.0 mi Calm Calm - N/A   Clear
3:55 AM 53.6 °F 50.0 °F 88% 29.93 in 10.0 mi Calm Calm - N/A   Clear
4:15 AM 51.8 °F 48.2 °F 88% 29.94 in 10.0 mi Calm Calm - N/A   Clear
4:35 AM 51.8 °F 46.4 °F 82% 29.94 in 10.0 mi Calm Calm - N/A   Clear
4:55 AM 50.0 °F 46.4 °F 87% 29.94 in 10.0 mi Calm Calm - N/A   Clear
5:15 AM 50.0 °F 46.4 °F 87% 29.95 in 7.0 mi Calm Calm - N/A   Clear
5:35 AM 50.0 °F 46.4 °F 87% 29.97 in 4.0 mi Calm Calm - N/A   Clear
5:55 AM 50.0 °F 46.4 °F 87% 29.97 in 10.0 mi Calm Calm - N/A   Clear
6:15 AM 50.0 °F 46.4 °F 87% 29.98 in 10.0 mi Calm Calm - N/A   Clear
6:35 AM 50.0 °F 44.6 °F 82% 29.99 in 10.0 mi Calm Calm - N/A   Clear
6:55 AM 48.2 °F 44.6 °F 87% 29.99 in 10.0 mi Calm Calm - N/A   Clear
7:15 AM 50.0 °F 46.4 °F 87% 30.01 in 10.0 mi Calm Calm - N/A   Clear
7:35 AM 50.0 °F 46.4 °F 87% 30.02 in 10.0 mi Calm Calm - N/A   Clear
7:55 AM 51.8 °F 46.4 °F 82% 30.02 in 10.0 mi North 3.5 mph - N/A   Clear
8:15 AM 53.6 °F 46.4 °F 77% 30.03 in 10.0 mi North 4.6 mph - N/A   Clear
8:35 AM 55.4 °F 46.4 °F 72% 30.04 in 10.0 mi North 5.8 mph - N/A   Clear
8:55 AM 55.4 °F 46.4 °F 72% 30.04 in 10.0 mi NNE 6.9 mph - N/A   Clear
9:15 AM 57.2 °F 44.6 °F 63% 30.04 in 10.0 mi NNE 5.8 mph - N/A   Clear
9:35 AM 59.0 °F 44.6 °F 59% 30.05 in 10.0 mi NE 4.6 mph - N/A   Clear
9:55 AM 60.8 °F 42.8 °F 52% 30.05 in 10.0 mi NE 4.6 mph - N/A   Clear
10:15 AM 60.8 °F 42.8 °F 52% 30.05 in 10.0 mi North 3.5 mph - N/A   Clear
10:35 AM 60.8 °F 42.8 °F 52% 30.05 in 10.0 mi Calm Calm - N/A   Clear
10:55 AM 62.6 °F 41.0 °F 45% 30.04 in 10.0 mi Calm Calm - N/A   Clear
11:15 AM 62.6 °F 42.8 °F 48% 30.03 in 10.0 mi Calm Calm - N/A   Clear
11:35 AM 64.4 °F 39.2 °F 40% 30.03 in 10.0 mi Calm Calm - N/A   Clear
11:55 AM 64.4 °F 44.6 °F 49% 30.02 in 10.0 mi SSE 4.6 mph - N/A   Clear
12:15 PM 64.4 °F 44.6 °F 49% 30.01 in 10.0 mi South 5.8 mph - N/A   Clear
12:35 PM 64.4 °F 42.8 °F 45% 30.00 in 10.0 mi SSE 5.8 mph - N/A   Clear
12:55 PM 64.4 °F 42.8 °F 45% 30.00 in 10.0 mi South 4.6 mph - N/A   Clear
1:15 PM 64.4 °F 42.8 °F 45% 30.00 in 10.0 mi South 6.9 mph - N/A   Clear
1:35 PM 64.4 °F 44.6 °F 49% 30.00 in 10.0 mi South 8.1 mph - N/A   Clear
1:55 PM 64.4 °F 44.6 °F 49% 30.00 in 10.0 mi SSW 6.9 mph - N/A   Clear
2:15 PM 64.4 °F 44.6 °F 49% 30.00 in 10.0 mi SSW 5.8 mph - N/A   Clear
2:35 PM 64.4 °F 42.8 °F 45% 30.00 in 10.0 mi SSW 5.8 mph - N/A   Clear
2:55 PM 64.4 °F 42.8 °F 45% 30.00 in 10.0 mi SSW 4.6 mph - N/A   Clear
3:15 PM 64.4 °F 42.8 °F 45% 30.00 in 10.0 mi South 4.6 mph - N/A   Clear
3:35 PM 64.4 °F 44.6 °F 49% 30.01 in 10.0 mi SW 4.6 mph - N/A   Clear
3:55 PM 62.6 °F 42.8 °F 48% 30.01 in 10.0 mi SSW 4.6 mph - N/A   Clear
4:15 PM 62.6 °F 42.8 °F 48% 30.01 in 10.0 mi SSW 3.5 mph - N/A   Clear
4:35 PM 60.8 °F 44.6 °F 55% 30.01 in 10.0 mi SSW 3.5 mph - N/A   Clear
4:55 PM 59.0 °F 44.6 °F 59% 30.01 in 10.0 mi Calm Calm - N/A   Clear
5:15 PM 57.2 °F 44.6 °F 63% 30.01 in 10.0 mi Calm Calm - N/A   Clear
5:35 PM 53.6 °F 46.4 °F 77% 30.01 in 10.0 mi Calm Calm - N/A   Clear
5:55 PM 50.0 °F 46.4 °F 87% 30.03 in 10.0 mi Calm Calm - N/A   Clear
6:15 PM 50.0 °F 46.4 °F 87% 30.03 in 10.0 mi Calm Calm - N/A   Clear
6:35 PM 48.2 °F 46.4 °F 93% 30.04 in 1.5 mi Calm Calm - N/A   Mist
6:55 PM 46.4 °F 44.6 °F 93% 30.04 in 7.0 mi Calm Calm - N/A   Clear
7:15 PM 46.4 °F 44.6 °F 93% 30.04 in 10.0 mi Calm Calm - N/A   Clear
7:35 PM 48.2 °F 44.6 °F 87% 30.05 in 10.0 mi Calm Calm - N/A   Clear
7:55 PM 46.4 °F 44.6 °F 93% 30.05 in 10.0 mi Calm Calm - N/A   Clear
8:15 PM 46.4 °F 44.6 °F 93% 30.04 in 7.0 mi Calm Calm - N/A   Clear
8:35 PM 46.4 °F 42.8 °F 87% 30.05 in 4.0 mi Calm Calm - N/A   Clear
8:55 PM 44.6 °F 42.8 °F 93% 30.05 in 2.0 mi Calm Calm - N/A   Clear
9:15 PM 44.6 °F 42.8 °F 93% 30.05 in 2.0 mi Calm Calm - N/A   Clear
9:35 PM 44.6 °F 42.8 °F 93% 30.05 in 10.0 mi Calm Calm - N/A   Clear
9:55 PM 44.6 °F 42.8 °F 93% 30.05 in 3.0 mi Calm Calm - N/A   Clear
10:15 PM 42.8 °F 41.0 °F 93% 30.04 in 10.0 mi Calm Calm - N/A   Clear
10:35 PM 42.8 °F 41.0 °F 93% 30.04 in 7.0 mi Calm Calm - N/A   Clear
10:55 PM 42.8 °F 41.0 °F 93% 30.04 in 1.8 mi Calm Calm - N/A   Mist
11:15 PM 44.6 °F 42.8 °F 93% 30.05 in 10.0 mi Calm Calm - N/A   Clear
11:35 PM 42.8 °F 41.0 °F 93% 30.05 in 7.0 mi Calm Calm - N/A   Clear
11:55 PM 42.8 °F 41.0 °F 93% 30.05 in 10.0 mi Calm Calm - N/A   Clear